sat.trackr.live / text

‹ back to catalog

STARLINK-34794

NORAD 65070 · 2025-165Q

PAYLOAD ACTIVE UNKNOWN

§ Identity

Operator
Country
US
Launch date
2025-07-31
Launch site
AFWTR
Launch vehicle
Mass (kg)
RCS (m²)

Purposes: comms

External: N2YO · Heavens-Above · Gunter

§ Orbital elements

Epoch: 2026-09-19T10:48:12.450240Z

Period
93.90 min
Inclination
97.2863°
Eccentricity
0.0000676
Mean motion
15.33480207 rev/d
Perigee alt
465.0 km
Apogee alt
465.9 km
Semi-major
6,843.6 km
B*
7.3364e-4
RAAN
333.6713°
Arg perigee
115.2090°
Mean anomaly
244.9223°
Rev number
6,396

§ Raw data

STARLINK-347941 65070U 25165Q   26262.45014410  .00023710  00000+0  73364-3 0  99922 65070  97.2863 333.6713 0000676 115.2090 244.9223 15.33480207 63961

JSON: /api/v1/satellites/65070 · /tle

For live sub-satellite position, see the globe view (requires WebGL).

§ Visibility from observer

Set your observer location to see the next 7 days of passes ≥ 10°. The values pass through the URL so the page stays shareable.

No JS? Fill the form by hand. The geolocation button needs JavaScript.